www.pogodaiklimat.ru

Погода и климат >> Архив погоды >> Норвегия >> Акселойа


ПОГОДА на Акселойа

  • Прогноз погоды на Акселойа
  • Монитор погоды на Акселойа

АРХИВ ПОГОДЫ на Акселойа

Время (UTC), дата Ветер
(напр.,м/с)
 
Видим.   Явления Облачность Т
(С)
Тd
(С)
f
(%)
Тe
(С)
Тes
(С)
Комфортность P
(гПа)
Po
(гПа)
Тmin
(С)
Tmax
(С)
R
(мм)
R24
(мм)
S
(см)
16 10.09 Ю 2
{6}
н/о н/о +9.0 +4.4 73 +7 +7 1002.9 1002.1
17 10.09 ЮВ 9
{12}
н/о н/о +7.3 +4.1 80 +2 +2 1001.9 1001.1
18 10.09 Ю 8
{14}
н/о н/о +9.0 +5.6 79 +5 +5 1001.2 1000.4 +3.4 +9.2
19 10.09 Ю 6
{11}
н/о н/о +9.1 +5.3 77 +5 +5 1000.8 1000.0
20 10.09 Ю 6
{10}
н/о н/о +9.0 +5.2 77 +5 +5 1000.3 999.5
21 10.09 ЮВ 6
{10}
н/о н/о +7.8 +4.9 82 +4 +4 999.6 998.8
22 10.09 ЮВ 6
{11}
н/о н/о +8.4 +4.8 78 +4 +4 999.4 998.6
23 10.09 Ю 4
{8}
н/о н/о +8.8 +5.4 79 +6 +6 999.4 998.6
00 11.09 Ю 9
{12}
н/о н/о +6.9 +4.1 82 +2 +2 999.4 998.6
01 11.09 Ю 8
{12}
н/о н/о +6.4 +3.4 81 +1 +1 999.6 998.8
02 11.09 Ю 8
{11}
н/о н/о +5.6 +3.3 85 -0 -0 999.5 998.7
03 11.09 ЮЗ 7
{9}
н/о н/о +5.2 +3.4 88 -0 -0 999.9 999.1
04 11.09 Ю 6
{8}
н/о н/о +5.3 +3.2 86 0 0 1000.4 999.6
05 11.09 ЮЗ 5
{8}
н/о н/о +4.4 +3.4 93 -1 -1 1001.2 1000.4
06 11.09 З 6
{12}
н/о н/о +3.7 +2.4 91 -2 -2 1001.9 1001.1 +3.5 +9.7
07 11.09 З 6
{8}
н/о н/о +3.3 +2.3 93 -3 -3 1002.4 1001.6
08 11.09 З 6
{8}
н/о н/о +3.4 +1.6 88 -2 -2 1003.1 1002.3
09 11.09 З 6
{8}
н/о н/о +3.0 +2.0 93 -3 -3 1003.7 1002.9
10 11.09 З 5
{7}
н/о н/о +3.2 +0.9 85 -2 -2 1004.2 1003.4
11 11.09 З 4
{5}
н/о н/о +3.3 +1.5 88 -1 -1 1004.5 1003.7
12 11.09 ЮЗ 2
{8}
н/о н/о +3.5 +1.7 88 +1 +1 1004.9 1004.1
13 11.09 штиль 0
{2}
н/о н/о +3.1 +1.6 90 +2 +2 1005.3 1004.5
14 11.09 штиль 0
{1}
н/о н/о +3.6 +2.0 89 +3 +3 1005.1 1004.3
15 11.09 В 2
{2}
н/о н/о +3.2 +1.1 86 0 0 1005.3 1004.5
16 11.09 В 2
{3}
н/о н/о +3.4 +1.5 87 0 0 1004.8 1004.0
17 11.09 В 3
{3}
н/о н/о +2.9 +1.0 87 -1 -1 1004.5 1003.7
18 11.09 В 4
{4}
н/о н/о +3.2 +1.4 88 -2 -2 1004.3 1003.5 +2.8 +3.7
19 11.09 В 6
{7}
н/о н/о +3.2 +1.3 87 -3 -3 1003.9 1003.1
20 11.09 В 7
{8}
н/о н/о +3.2 +1.9 91 -3 -3 1003.2 1002.4
21 11.09 СВ 7
{9}
н/о н/о +3.2 +1.7 90 -3 -3 1003.1 1002.3
22 11.09 В 8
{9}
н/о н/о +3.6 +1.3 85 -3 -3 1002.9 1002.1
23 11.09 СВ 9
{12}
н/о н/о +3.8 +1.2 83 -3 -3 1002.1 1001.3
00 12.09 В 10
{13}
н/о н/о +4.1 +1.3 82 -3 -3 1001.6 1000.8
01 12.09 СВ 9
{13}
н/о н/о +4.3 +1.5 82 -2 -2 1001.0 1000.2
02 12.09 В 9
{13}
н/о н/о +4.5 +1.5 81 -2 -2 1000.0 999.2
03 12.09 СВ 8
{13}
н/о н/о +5.5 +1.6 76 0 0 999.3 998.5
04 12.09 В 8
{13}
н/о н/о +6.0 +2.5 78 +1 +1 998.7 997.9
05 12.09 В 7
{12}
н/о н/о +6.7 +2.2 73 +2 +2 998.5 997.7
06 12.09 В 11
{14}
н/о н/о +5.5 +2.5 81 -1 -1 997.5 996.7 +3.1 +6.8
07 12.09 В 15
{17}
н/о н/о +5.0 +2.0 81 -3 -3 996.2 995.4
08 12.09 В 12
{17}
н/о н/о +5.4 +2.8 83 -1 -1 995.9 995.1
09 12.09 В 15
{18}
н/о н/о +5.0 +2.5 84 -3 -3 995.2 994.4
10 12.09 В 14
{18}
н/о н/о +5.4 +3.1 85 -2 -2 994.9 994.1
11 12.09 В 12
{18}
н/о н/о +5.4 +2.9 84 -1 -1 995.1 994.3
12 12.09 В 12
{18}
н/о н/о +6.5 +3.5 81 0 0 994.0 993.2
13 12.09 В 13
{17}
н/о н/о +7.5 +4.5 81 +1 +1 993.8 993.0
14 12.09 В 10
{16}
н/о н/о +5.5 +3.7 88 -1 -1 994.1 993.3
15 12.09 В 7
{13}
н/о н/о +7.7 +4.8 82 +3 +3 994.1 993.3
16 12.09 В 8
{12}
н/о н/о +6.2 +3.9 85 +1 +1 993.6 992.8
17 12.09 В 4
{11}
н/о н/о +6.4 +3.6 82 +3 +3 993.9 993.1
18 12.09 В 4
{17}
н/о н/о +6.9 +4.2 83 +3 +3 993.6 992.8 +4.6 +8.1
19 12.09 В 8
{12}
н/о н/о +7.0 +4.2 82 +2 +2 993.1 992.3
20 12.09 В 4
{11}
н/о н/о +7.1 +4.8 85 +4 +4 993.6 992.8
21 12.09 В 10
{14}
н/о н/о +7.6 +4.7 82 +2 +2 993.2 992.4
22 12.09 В 5
{10}
н/о н/о +7.1 +4.8 85 +3 +3 993.6 992.8
23 12.09 В 9
{12}
н/о н/о +7.1 +4.3 82 +2 +2 993.3 992.5
00 13.09 ЮВ 5
{14}
н/о н/о +7.1 +4.4 83 +3 +3 993.6 992.8
01 13.09 СВ 2
{7}
н/о н/о +7.4 +4.5 82 +5 +5 993.5 992.7
02 13.09 ЮВ 7
{8}
н/о н/о +7.9 +4.5 79 +3 +3 993.2 992.4
03 13.09 ЮВ 6
{10}
н/о н/о +7.6 +4.2 79 +3 +3 993.5 992.7
04 13.09 СВ 3
{8}
н/о н/о +6.9 +4.1 82 +4 +4 993.7 992.9
05 13.09 СВ 4
{6}
н/о н/о +6.9 +4.1 82 +3 +3 993.8 993.0
06 13.09 В 2
{10}
н/о н/о +7.3 +4.1 80 +5 +5 993.8 993.0 +6.2 +7.9
07 13.09 В 6
{10}
н/о н/о +6.0 +4.5 90 +1 +1 993.8 993.0
08 13.09 СВ 5
{7}
н/о н/о +6.7 +4.2 84 +3 +3 994.0 993.2
09 13.09 СВ 6
{7}
н/о н/о +6.4 +4.1 85 +2 +2 994.0 993.3
10 13.09 В 8 н/о н/о +6.3 +4.5 88 +1 +1 993.9 993.1
11 13.09 СВ 6 н/о н/о +6.8 +4.8 87 +2 +2 994.2 993.4
12 13.09 В 5
{10}
н/о н/о +7.8 +4.6 80 +4 +4 994.3 993.5
13 13.09 В 9 н/о н/о +6.1 +4.4 89 0 0 994.2 993.4
14 13.09 В 5 н/о н/о +7.1 +4.4 83 +3 +3 994.3 993.5
15 13.09 ЮВ 4 н/о н/о +8.1 +4.3 77 +5 +5 994.4 993.6
16 13.09 ЮВ 5 н/о н/о +8.0 +4.0 76 +4 +4 994.5 993.7
17 13.09 ЮВ 8 н/о н/о +7.5 +3.9 78 +3 +3 994.5 993.7
18 13.09 ЮВ 9
{13}
н/о н/о +7.0 +3.4 78 +2 +2 994.6 993.9 +8.5
19 13.09 В 3 н/о н/о +6.8 +3.4 79 +4 +4 995.5 994.7
20 13.09 Ю 2 н/о н/о +7.2 +3.3 76 +5 +5 996.0 995.2
21 13.09 В 3 н/о н/о +6.9 +3.7 80 +4 +4 996.1 995.3
22 13.09 СВ 4 н/о н/о +6.3 +3.6 83 +3 +3 996.1 995.3
23 13.09 СВ 5 н/о н/о +6.5 +4.0 84 +2 +2 996.2 995.4
00 14.09 СВ 2
{11}
н/о н/о +6.8 +4.0 82 +5 +5 996.3 995.5
01 14.09 СВ 5
{7}
н/о н/о +6.3 +3.8 84 +2 +2 996.6 995.8
02 14.09 В 2
{6}
н/о н/о +7.0 +4.0 81 +5 +5 996.7 995.9
03 14.09 штиль 0 н/о н/о +6.4 +3.6 82 +6 +6 996.8 996.0
04 14.09 В 3
{9}
н/о н/о +6.6 +3.8 82 +4 +4 996.9 996.1
05 14.09 В 9
{11}
н/о н/о +5.9 +2.9 81 0 0 996.6 995.8
06 14.09 СВ 7
{14}
н/о н/о +6.0 +3.0 81 +1 +1 996.8 996.0 +5.7 +7.7
07 14.09 СВ 5 н/о н/о +6.2 +2.8 79 +2 +2 997.5 996.7
09 14.09 В 14
{18}
н/о н/о +4.7 +2.1 83 -3 -3 997.5 996.7
10 14.09 В 14
{18}
н/о н/о +4.6 +2.0 83 -3 -3 997.3 996.5
11 14.09 В 15
{19}
н/о н/о +4.8 +1.8 81 -3 -3 997.2 996.4
12 14.09 В 15 н/о н/о +4.6 +1.8 82 -3 -3 996.9 996.2
13 14.09 В 16
{18}
н/о н/о +4.5 +1.9 83 -3 -3 997.1 996.3
14 14.09 В 15
{18}
н/о н/о +4.4 +1.8 83 -3 -3 997.2 996.4
15 14.09 В 16
{19}
н/о н/о +4.4 +1.6 82 -4 -4 996.9 996.2
16 14.09 В 17
{19}
н/о н/о +4.2 +1.6 83 -4 -4 996.5 995.7
17 14.09 В 17
{20}
н/о н/о +4.0 +1.2 82 -4 -4 995.8 995.0
18 14.09 В 17
{20}
н/о н/о +3.8 +1.2 83 -5 -5 995.8 995.0
19 14.09 В 16
{19}
н/о н/о +3.7 +0.9 82 -5 -5 995.5 994.7
20 14.09 В 18
{20}
н/о н/о +3.6 +1.5 86 -5 -5 994.9 994.1
21 14.09 В 17
{19}
н/о н/о +3.6 +1.7 87 -5 -5 994.8 994.0
22 14.09 В 18
{21}
н/о н/о +3.6 +1.7 87 -5 -5 994.2 993.4
23 14.09 В 16
{20}
н/о н/о +3.4 +1.6 88 -5 -5 994.7 993.9
00 15.09 В 15
{21}
н/о н/о +3.8 +1.5 85 -4 -4 995.3 994.5
01 15.09 В 14
{19}
н/о н/о +4.2 +1.6 83 -3 -3 996.0 995.2
02 15.09 В 11
{16}
н/о н/о +4.9 +1.4 78 -2 -2 996.9 996.1
03 15.09 В 12
{14}
н/о н/о +4.3 +1.7 83 -3 -3 997.3 996.5
04 15.09 ЮВ 7
{14}
н/о н/о +4.9 +0.9 75 -1 -1 998.3 997.5
05 15.09 В 10
{12}
н/о н/о +4.3 +0.6 77 -2 -2 998.4 997.6
06 15.09 В 11
{19}
н/о н/о +4.1 +0.8 79 -3 -3 998.7 997.9 +3.4 +5.3
07 15.09 В 14
{17}
н/о н/о +4.2 +1.6 83 -3 -3 998.8 998.0
08 15.09 В 8
{15}
н/о н/о +5.1 +1.6 78 -1 -1 1000.2 999.4
09 15.09 В 7
{12}
н/о н/о +5.8 +1.4 73 +1 +1 1001.2 1000.4
10 15.09 ЮВ 9
{11}
н/о н/о +6.0 +1.4 72 0 0 1002.1 1001.3
11 15.09 ЮВ 6
{11}
н/о н/о +6.3 +1.8 73 +2 +2 1003.2 1002.4
12 15.09 В 8
{17}
н/о н/о +5.5 +2.2 79 -0 -0 1004.0 1003.2
13 15.09 ЮВ 8
{11}
н/о н/о +6.6 +1.7 71 +2 +2 1004.9 1004.1
14 15.09 Ю 2
{10}
н/о н/о +6.9 +1.6 69 +5 +5 1006.3 1005.5
15 15.09 ЮВ 6
{8}
н/о н/о +6.2 +1.6 72 +2 +2 1006.7 1005.9
16 15.09 ЮВ 7
{10}
н/о н/о +6.1 +1.5 72 +1 +1 1007.1 1006.3
17 15.09 ЮВ 7
{10}
н/о н/о +6.4 +1.2 69 +2 +2 1007.8 1007.0
18 15.09 ЮВ 11
{13}
н/о н/о +6.1 +0.9 69 0 0 1008.1 1007.3 +3.7 +6.9
19 15.09 ЮВ 6
{11}
н/о н/о +5.3 +1.4 76 0 0 1009.7 1008.9
20 15.09 В 6
{8}
н/о н/о +5.1 +1.8 79 0 0 1010.6 1009.8
21 15.09 В 6
{9}
н/о н/о +4.8 +1.8 81 -0 -0 1011.1 1010.3
22 15.09 В 11
{12}
н/о н/о +4.4 +2.1 85 -3 -3 1011.2 1010.4
23 15.09 В 12
{15}
н/о н/о +4.2 +1.8 84 -3 -3 1011.4 1010.6
00 16.09 В 13
{15}
н/о н/о +4.4 +1.6 82 -3 -3 1011.7 1010.9
01 16.09 В 13
{16}
н/о н/о +4.2 +1.4 82 -3 -3 1012.2 1011.4
02 16.09 В 15
{18}
н/о н/о +3.3 +1.0 85 -5 -5 1012.1 1011.3
03 16.09 СВ 16
{19}
н/о н/о +2.9 +0.3 83 -6 -6 1012.5 1011.6
04 16.09 В 17
{20}
н/о н/о +2.8 +0.1 82 -6 -6 1013.3 1012.5
05 16.09 В 17
{19}
н/о н/о +2.7 -0.2 81 -6 -6 1013.7 1012.9
06 16.09 В 15
{20}
н/о н/о +2.6 -0.5 80 -6 -6 1014.8 1014.0 +2.6 +6.1
07 16.09 В 16
{18}
н/о н/о +2.2 -0.7 81 -7 -7 1015.2 1014.4
08 16.09 В 16
{18}
н/о н/о +1.9 -0.8 82 -7 -7 1015.7 1014.9
09 16.09 В 17
{19}
н/о н/о +1.7 -1.5 79 -8 -8 1016.4 1015.5
10 16.09 СВ 15
{18}
н/о н/о +1.6 -1.6 79 -7 -7 1017.1 1016.3
11 16.09 В 16
{19}
н/о н/о +1.5 -1.7 79 -8 -8 1017.7 1016.9
12 16.09 В 16
{19}
н/о н/о +1.3 -2.8 74 -8 -8 1018.4 1017.6
13 16.09 В 16
{20}
н/о н/о +1.2 -2.7 75 -8 -8 1018.9 1018.0
14 16.09 В 15
{18}
н/о н/о +1.0 -3.6 71 -8 -8 1019.1 1018.3
15 16.09 В 16
{19}
н/о н/о +1.0 -2.9 75 -8 -8 1019.1 1018.2
16 16.09 В 16
{19}
н/о н/о +0.7 -3.9 71 -9 -9 1019.7 1018.9
17 16.09 В 15
{19}
н/о н/о +0.5 -3.9 72 -9 -9 1020.1 1019.3
18 16.09 В 15
{20}
н/о н/о +0.4 -3.8 73 -9 -9 1019.9 1019.1 +0.3 +2.6
19 16.09 В 14
{16}
н/о н/о +0.2 -3.5 76 -9 -9 1020.2 1019.4
20 16.09 В 13
{18}
н/о н/о 0.0 -3.3 78 -9 -9 1020.3 1019.5
21 16.09 В 14
{16}
н/о н/о +0.3 -3.6 75 -9 -9 1020.4 1019.6
22 16.09 В 14
{17}
н/о н/о +0.2 -3.5 76 -9 -9 1020.5 1019.6
23 16.09 В 12
{16}
н/о н/о +0.1 -3.6 76 -8 -8 1020.9 1020.1
00 17.09 В 11
{18}
н/о н/о +0.5 -3.7 73 -8 -8 1021.2 1020.4
01 17.09 В 10
{14}
н/о н/о +0.4 -3.5 75 -7 -7 1021.7 1020.9
02 17.09 В 13
{15}
н/о н/о +0.5 -3.0 77 -8 -8 1021.4 1020.6
03 17.09 В 12
{14}
н/о н/о +0.5 -4.1 71 -8 -8 1021.3 1020.4
04 17.09 В 14
{17}
н/о н/о +0.6 -3.8 72 -8 -8 1021.1 1020.2
05 17.09 В 13
{16}
н/о н/о +0.6 -3.8 72 -8 -8 1021.2 1020.4
06 17.09 В 12
{17}
н/о н/о +0.5 -3.9 72 -8 -8 1021.3 1020.5 0.0 +0.9
07 17.09 В 12
{15}
н/о н/о +0.5 -3.9 72 -8 -8 1021.3 1020.5
08 17.09 В 11
{14}
н/о н/о +0.5 -4.3 70 -8 -8 1021.6 1020.8
09 17.09 В 10
{13}
н/о н/о +0.6 -4.2 70 -7 -7 1021.6 1020.7
10 17.09 В 9
{12}
н/о н/о +1.0 -4.8 65 -6 -6 1021.7 1020.9
11 17.09 В 9
{10}
н/о н/о +0.9 -4.3 68 -6 -6 1021.5 1020.7
12 17.09 В 8
{15}
н/о н/о +0.8 -4.4 68 -6 -6 1021.7 1020.8
13 17.09 СВ 6
{9}
н/о н/о +0.9 -4.9 65 -5 -5 1021.5 1020.7
14 17.09 СВ 6
{8}
н/о н/о +0.8 -4.6 67 -5 -5 1021.3 1020.5
15 17.09 В 6
{8}
н/о н/о +0.4 -5.4 65 -6 -6 1021.1 1020.3

 

Местоположение метеостанции Акселойа (Норвегия): широта 77.68 долгота 14.78 высота над уровнем моря 6 м.

В архиве по умолчанию представлена погода на Акселойа за последнюю неделю. Архивные данные за месяц целиком и за предыдущие месяцы, начиная с января 2011 года, Вы можете получить, выбрав интересующий диапазон дат из раскрывающегося списка и нажав кнопку "Ввод!".


*Определитесь, кто Вы:
робот инопланетянин человек

Внимание! Время в таблицах - всемирное. Для получения местного времени необходимо прибавить поправку, которая равна 1 ч.

Смотрите также архив погоды в соседних городах и на ближайших метеорологических станциях:

Погода в Баренцбурге (Шпицберген, Россия) (45 км)
Погода в Свальбард аэропорту (Норвегия) (66 км)
Погода на Хорнсунне (Норвегия) (78 км)
Погода в Пирамиде (Норвегия) (115 км)
Погода на Сёркаппёйа (Норвегия) (141 км)
Погода в Ню-Олесунн (Норвегия) (152 км)
Погода на Эдже (Норвегия) (197 км)
Погода на Верлегенхукен (Норвегия) (265 км)
Погода в Хопене (Норвегия) (285 км)
Погода на Конгсёйа (Норвегия) (346 км)

Пояснения к столбцам:

Ветер - указаны скорость ветра в м/с - средняя за 10 мин, порывы в срок и между сроками (в фигурных скобках) и направление, откуда дует ветер: С - северный, СВ - северо-восточный, В - восточный, ЮВ - юго-восточный, Ю - южный, ЮЗ - юго-западный, З - западный, СЗ - северо-западный.
Видимость - горизонтальная дальность видимости в метрах или километрах. При видимости от 1 до 10 км при отсутствии осадков обычно наблюдается дымка, при ухудшении видимости до 1 км и менее - туман. В сухую погоду видимость может ухудшаться дымом, пылью или мглою.
Явления - указаны атмосферные явления, наблюдавшиеся в срок или в последний час перед сроком; фигурными скобками обозначены явления, наблюдавшиеся между сроками (за 1-3 часа до срока); квадратными скобками обозначены град или гололедные отложения с указанием их диаметра в мм.
Облачность - указаны через наклонную черту общая и нижняя облачность в баллах и высота нижней границы облаков в метрах; квадратными скобками обозначены формы облаков: Ci - перистые, Cs - перисто-слоистые, Cc - перисто-кучевые, Ac - высококучевые, As - высокослоистые, Sc - слоисто-кучевые, Ns - слоисто-дождевые, Cu - кучевые, Cb - кучево-дождевые. Подробнее классификацию облаков см. в Атласе облаков (PDF).
T - Температура воздуха - температура, измеренная на высоте 2 м над землей.
Td - Температура точки росы - температура, при понижении до которой содержащийся в воздухе водяной пар достигнет насыщения.
f - Относительная влажность воздуха - влажноcть воздуха, измеренная на высоте 2 м над землей.
Te - Эффективная температура - температура, которую ощущает одетый по сезону человек в тени. Характеристика душности погоды. При расчете учитывается влияние влажности воздуха и скорости ветра на теплоощущения человека.
Tes - Эффективная температура на солнце - температура, которую ощущает человек, с поправкой на солнечный нагрев. Характеристика знойности погоды. Зависит от высоты солнца над горизонтом, облачности и скорости ветра. Ночью, в пасмурную погоду, а также при ветре 12 м/с и более поправка равна нулю.
P - Атмосферное давление - приведенное к уровню моря атмосферное давление.
Po - Атмосферное давление - измеренное на уровне метеостанции атмосферное давление.
Tmin - Минимальная температура - минимум температуры воздуха на высоте 2 м над землей.
Tmax - Максимальная температура - максимум температуры воздуха на высоте 2 м над землей.
R - Количество осадков - Количество выпавших осадков за период времени, мм. При наведении курсора мыши на число - период времени, за который выпало указанное количество осадков.
R24 - Количество осадков - Количество выпавших осадков за 24 часа, мм.
S - Снежный покров - Высота снежного покрова, см. При наведении курсора мыши на число - состояние снежного покрова и степень покрытия местности в баллах.